DW3733 Luzzi (cosenza) IT current weather conditions

sailwx.info

Wind at 1 knots gusting 2

Air temperature 3.3° C
Dewpoint 3.2° C

Last reported at 2017-Jan-17 07:43 UTC.
Time now 2017-Jan-17 23:25 UTC

Location: N 39°27' E 016°16'.
View on Google Maps.

See reports from other nearby stations

  
Tides and Currents Weather Stations Pressure Air Temp Water Temp Dewpoint Dewpoint Depression Visibility Wind Speed Wind Dir Waves Ship Positions
date/time (UTC)wind fromknots sea level pressurealtimeterstation pressurevisibilityair tempwater tempwave heightnotes
2017-Jan-17 07:43 3.3
2017-Jan-17 07:33 347 3.3
2017-Jan-17 07:23 035 0 gusting 2 3.3
2017-Jan-17 07:13 344 1 gusting 2 2.8
2017-Jan-17 07:03 315 0 gusting 4 2.8
2017-Jan-17 06:53 355 1 gusting 5 2.8
2017-Jan-17 06:43 315 0 gusting 2 2.8
2017-Jan-17 06:33 026 2.8
2017-Jan-17 06:23 354 2.2
2017-Jan-17 06:13 2.2
2017-Jan-17 06:03 345 2.2
2017-Jan-17 05:53 020 1 gusting 2 2.8
2017-Jan-17 05:43 011 0 gusting 1 2.8
2017-Jan-17 05:33 315 0 gusting 1 2.8
2017-Jan-17 05:23 315 2.8
2017-Jan-17 05:13 127 2.8
2017-Jan-17 05:03 315 2.8
2017-Jan-17 04:53 315 2.8
2017-Jan-17 04:43 234 2.8
2017-Jan-17 04:33 180 0 gusting 2 3.3
2017-Jan-17 04:23 270 2.8
2017-Jan-17 04:13 270 2.8
2017-Jan-17 04:03 306 0 gusting 2 2.8
2017-Jan-17 03:53 180 0 gusting 2 2.8
2017-Jan-17 03:43 242 0 gusting 2 2.8
2017-Jan-17 03:33 232 1 gusting 2 2.8
2017-Jan-17 03:23 270 0 gusting 2 2.8
2017-Jan-17 03:13 270 2.8
2017-Jan-17 03:03 158 0 gusting 2 2.8
2017-Jan-17 02:53 248 2.8
2017-Jan-17 02:43 270 2.8
2017-Jan-17 02:33 315 3.3
2017-Jan-17 02:23 270 3.3
2017-Jan-17 02:13 358 3.3
2017-Jan-17 02:03 233 0 gusting 2 3.9
2017-Jan-17 01:53 223 3.9
2017-Jan-17 01:43 225 1 gusting 2 3.9
2017-Jan-17 01:33 270 1 gusting 2 3.9
2017-Jan-17 01:23 038 3.9
2017-Jan-17 01:13 180 2 gusting 5 3.9
2017-Jan-17 01:03 225 0 gusting 1 3.9
2017-Jan-17 00:53 358 3.9
2017-Jan-17 00:43 225 1 gusting 4 4.4
2017-Jan-17 00:33 263 0 gusting 2 4.4
2017-Jan-17 00:23 315 0 gusting 2 4.4
2017-Jan-17 00:13 180 1 gusting 4 4.4
2017-Jan-17 00:03 270 2 gusting 5 4.4
2017-Jan-16 23:53 173 2 gusting 5 4.4
2017-Jan-16 23:43 303 0 gusting 1 4.4
2017-Jan-16 23:33 338 0 gusting 5 4.4
2017-Jan-16 23:23 160 0 gusting 6 4.4
2017-Jan-16 23:13 225 2 gusting 5 4.4
2017-Jan-16 23:03 202 0 gusting 2 4.4
2017-Jan-16 22:53 065 1 gusting 4 4.4
2017-Jan-16 22:43 225 1 gusting 5 3.9
2017-Jan-16 22:33 225 1 gusting 5 3.9
2017-Jan-16 22:23 153 0 gusting 2 4.4
2017-Jan-16 22:13 180 0 gusting 2 4.4
2017-Jan-16 22:03 290 0 gusting 1 4.4
2017-Jan-16 21:53 027 4.4
2017-Jan-16 21:43 294 0 gusting 1 4.4
2017-Jan-16 21:33 315 0 gusting 2 4.4
2017-Jan-16 21:23 333 4.4
2017-Jan-16 21:13 180 0 gusting 1 4.4
2017-Jan-16 21:03 4.4
2017-Jan-16 20:53 001 0 gusting 2 4.4
2017-Jan-16 20:43 4.4
2017-Jan-16 20:33 315 0 gusting 1 4.4
2017-Jan-16 20:23 315 4.4
2017-Jan-16 20:13 289 4.4
2017-Jan-16 20:03 315 4.4
2017-Jan-16 19:53 298 0 gusting 2 4.4
2017-Jan-16 19:43 338 0 gusting 5 4.4
2017-Jan-16 19:33 335 1 gusting 2 5.0
2017-Jan-16 19:23 355 0 gusting 6 5.0
2017-Jan-16 19:13 340 0 gusting 2 4.4
2017-Jan-16 19:03 4.4
2017-Jan-16 18:53 326 0 gusting 5 4.4
2017-Jan-16 18:43 294 1 gusting 6 4.4
2017-Jan-16 18:33 315 1 gusting 4 3.9
2017-Jan-16 18:23 351 0 gusting 5 3.3
2017-Jan-16 18:13 126 1 gusting 5 3.3
2017-Jan-16 18:03 270 3.3
2017-Jan-16 17:53 257 3.3
2017-Jan-16 17:43 270 1 gusting 2 3.3
2017-Jan-16 17:33 225 3.3
2017-Jan-16 17:23 225 3.3
2017-Jan-16 17:13 271 0 gusting 2 2.8
2017-Jan-16 17:03 292 0 gusting 1 3.3
2017-Jan-16 16:53 214 3.3
2017-Jan-16 16:43 284 3.3
2017-Jan-16 16:33 315 0 gusting 2 3.9
2017-Jan-16 16:23 270 3.9
2017-Jan-16 16:13 270 0 gusting 1 4.4
2017-Jan-16 16:03 299 0 gusting 0 5.0
2017-Jan-16 15:53 318 0 gusting 2 5.0
2017-Jan-16 15:43 315 0 gusting 2 5.6
2017-Jan-16 15:33 315 0 gusting 1 6.1
2017-Jan-16 15:23 270 0 gusting 1 6.1
2017-Jan-16 15:13 264 6.7
2017-Jan-16 15:03 225 0 gusting 2 6.7
2017-Jan-16 14:53 180 0 gusting 2 6.7
2017-Jan-16 14:43 270 6.7
2017-Jan-16 14:33 270 6.7
2017-Jan-16 14:23 225 0 gusting 1 6.7
2017-Jan-16 14:13 240 7.2
2017-Jan-16 14:03 011 1 gusting 4 7.2
2017-Jan-16 13:53 315 0 gusting 2 6.7
2017-Jan-16 13:43 043 0 gusting 2 6.7
2017-Jan-16 13:33 287 0 gusting 2 6.1
2017-Jan-16 13:23 5.6
2017-Jan-16 13:13 332 0 gusting 2 5.6
2017-Jan-16 12:53 334 1 gusting 4 5.6
2017-Jan-16 11:23 270 0 gusting 1 5.6
2017-Jan-16 11:13 345 5.6
2017-Jan-16 11:03 274 0 gusting 4 5.0
2017-Jan-16 10:53 273 1 gusting 4 4.4
2017-Jan-16 10:43 324 1 gusting 2 4.4
2017-Jan-16 10:33 331 0 gusting 0 3.9
2017-Jan-16 10:23 315 0 gusting 4 3.9
2017-Jan-16 10:13 3.3
2017-Jan-16 10:03 315 1 gusting 2 3.3
2017-Jan-16 09:53 327 0 gusting 1 2.8
2017-Jan-16 09:43 315 2.2
2017-Jan-16 09:33 2.2
2017-Jan-16 09:23 015 2.2
2017-Jan-16 09:13 2.2
2017-Jan-16 09:03 286 1.7
2017-Jan-16 08:53 270 1.7
2017-Jan-16 08:43 315 1.7
2017-Jan-16 08:33 254 0 gusting 2 2.2
2017-Jan-16 08:23 223 2.2
2017-Jan-16 08:13 225 2.2
2017-Jan-16 08:03 245 1.7
2017-Jan-16 07:53 270 1.1
2017-Jan-16 07:43 270 1.7
2017-Jan-16 07:33 315 1.7
2017-Jan-16 07:23 241 1.7
2017-Jan-16 07:13 270 0 gusting 1 1.7
2017-Jan-16 07:03 225 0 gusting 2 1.1
2017-Jan-16 06:53 225 0 gusting 2 1.1
2017-Jan-16 06:43 270 0 gusting 1 1.1
2017-Jan-16 06:33 267 1.1
2017-Jan-16 06:23 315 1.1
2017-Jan-16 06:13 225 0 gusting 1 1.1
2017-Jan-16 06:03 315 1.7
2017-Jan-16 05:53 270 0 gusting 1 1.7
2017-Jan-16 05:43 193 0 gusting 2 2.2
2017-Jan-16 05:33 233 1 gusting 4 1.7
2017-Jan-16 05:23 292 1 gusting 6 1.7
2017-Jan-16 05:13 225 3 gusting 6 1.7
2017-Jan-16 05:03 315 0 gusting 5 1.7
2017-Jan-16 04:53 270 0 gusting 2 1.7
2017-Jan-16 04:43 225 1.7
2017-Jan-16 04:33 195 0 gusting 0 1.7
2017-Jan-16 04:23 315 0 gusting 2 1.7
2017-Jan-16 04:13 045 0 gusting 1 1.7
2017-Jan-16 04:03 258 0 gusting 1 1.7
2017-Jan-16 03:53 262 1 gusting 5 1.7
2017-Jan-16 03:43 056 1 gusting 4 1.7
2017-Jan-16 03:33 315 1 gusting 2 1.7
2017-Jan-16 03:23 180 0 gusting 2 2.2
2017-Jan-16 03:13 180 2.2
2017-Jan-16 03:03 135 1 gusting 4 2.8
2017-Jan-16 02:53 339 2 gusting 6 2.8
2017-Jan-16 02:43 225 4 gusting 6 2.2
2017-Jan-16 02:33 293 3 gusting 8 1.7
2017-Jan-16 02:23 267 4 gusting 6 0.6
2017-Jan-16 02:13 248 2 gusting 6 0.6
2017-Jan-16 02:03 185 0.6
2017-Jan-16 01:53 256 0.6
2017-Jan-16 01:43 315 0.6
2017-Jan-16 01:33 225 0.6
2017-Jan-16 01:23 225 0.6
2017-Jan-16 01:13 225 1.1
2017-Jan-16 01:03 225 0.6
2017-Jan-16 00:53 225 0.6
2017-Jan-16 00:43 225 0.6
2017-Jan-16 00:33 225 0.6
2017-Jan-16 00:23 225 1.1
2017-Jan-16 00:13 225 1.1
2017-Jan-16 00:03 180 0 gusting 1 1.7
2017-Jan-15 23:53 045 0 gusting 4 1.1
2017-Jan-15 23:43 1.1
2017-Jan-15 23:33 270 1 gusting 2 1.1
2017-Jan-15 23:23 296 0 gusting 2 0.6
2017-Jan-15 23:13 0.6
2017-Jan-15 23:03 0.6